CAPE
0 0 0 5 0 0 0 0 8 36 32 13 0 0 43 196 510 397 159 237 1243 1832 1968 2155 2237 2121 1820 1479 1369 654 182 95 303 761 523 369 403 422 434 197 38 0 0 0
0 0 0 0 0 1 0 0 0 0 15 7 0 0 1 158 199 162 208 269 544 1367 1467 2409 1784 1515 1323 948 496 403 247 364 612 488 367 364 449 173 76 11 0 0 0 0
0 0 0 0 0 0 0 5 4 1 3 12 5 22 0 0 202 260 150 38 425 0 405 2078 1355 1503 1077 664 514 385 745 626 504 241 277 371 190 70 32 0 0 0 0 0
0 0 0 0 0 0 2 0 0 1 0 0 0 0 981 583 712 504 0 127 1490 792 2240 1760 1289 906 838 681 423 230 245 188 149 182 268 97 16 0 0 0 0 0 0 0
0 0 0 0 10 0 1 0 397 1 35 0 0 172 714 2031 269 549 2093 2076 2037 2349 2066 1474 1078 984 461 429 263 114 34 1 0 1 37 0 0 0 0 0 0 0 0 0
0 0 0 0 166 256 12 172 411 15 31 37 523 133 65 1899 2224 1813 1871 1746 1680 1914 1683 1201 151 154 29 239 188 18 0 34 20 0 0 0 0 0 0 0 0 0 0 0
0 0 0 348 175 416 216 674 747 671 12 310 256 0 283 1383 1692 1694 1620 1375 1135 1036 667 29 0 7 0 53 1 4 41 0 0 0 0 0 0 0 0 0 0 0 0 0
96 0 26 39 229 299 330 432 1336 1304 1369 1292 80 16 1487 1557 1585 1485 1377 1160 862 608 302 63 1 0 0 0 72 0 0 0 0 0 0 0 0 0 0 0 0 0 0 0
116 165 4 7 233 100 401 745 432 365 699 262 505 1688 1537 1287 1141 866 701 536 473 143 44 34 48 12 41 2 0 0 0 0 0 0 0 0 0 0 0 0 0 0 0 0
70 84 3 98 71 84 186 482 538 1261 399 1038 1565 1807 1461 1019 742 403 278 154 85 35 2 0 0 0 0 0 0 0 0 0 0 0 0 0 0 0 0 0 0 0 0 0
10 89 4 8 74 59 9 49 302 566 1479 1866 1842 1581 1213 800 492 249 120 0 0 0 0 0 0 0 0 0 0 0 0 0 0 0 0 0 0 0 0 0 0 0 0 0
205 40 0 10 47 119 248 380 137 1350 2144 1860 1689 1296 1153 838 548 228 43 4 0 0 0 0 0 0 0 0 0 0 0 0 0 0 0 0 0 0 0 0 0 0 0 0
3 12 0 0 0 0 167 216 416 866 1931 1617 1283 1218 931 522 338 136 19 0 0 0 0 0 0 0 0 0 0 0 0 0 0 0 0 0 0 0 0 0 0 0 0 0
15 47 0 0 0 0 0 3 407 1169 1269 1335 1188 979 624 513 226 156 11 0 0 0 0 0 0 0 0 0 0 0 0 0 0 0 0 0 0 0 0 0 0 0 0 0
5 87 0 0 19 1 308 158 655 429 271 458 813 675 626 405 307 99 0 0 0 0 0 0 0 0 0 0 0 0 0 0 0 0 0 0 0 0 0 0 0 0 0 0
0 1 2 9 0 242 571 696 764 410 245 55 197 352 532 390 265 1 0 0 0 0 0 0 0 0 0 0 0 0 0 0 0 0 0 0 0 0 0 0 0 0 0 0
9 108 104 42 0 2 430 642 15 0 31 0 0 49 21 212 1 0 0 0 0 0 0 0 0 0 0 0 0 0 0 0 0 0 0 0 0 0 0 0 0 0 0 0
131 51 0 0 0 0 0 0 0 0 0 2 6 111 98 23 2 0 0 0 0 0 0 0 0 0 0 0 0 0 0 0 0 0 0 0 0 0 0 0 0 0 0 0
118 114 191 196 0 0 0 0 0 0 0 0 19 54 5 0 0 0 0 0 0 0 0 0 0 0 0 0 0 0 0 0 0 0 0 0 0 0 0 0 0 0 0 0
909 706 34 0 0 0 1 172 9 0 95 118 4 0 0 0 0 0 0 0 0 0 0 0 0 0 0 0 0 0 0 0 0 0 0 0 0 0 0 0 0 0 0 0
653 712 663 461 373 381 331 361 100 78 0 0 0 0 0 0 0 0 0 0 0 0 0 0 0 0 0 0 0 0 0 0 0 0 0 0 0 0 0 0 0 0 0 0
424 408 333 222 175 67 24 1 0 0 0 0 0 0 0 0 0 0 0 0 0 0 0 0 0 0 0 0 0 0 0 0 0 0 1 4 2 0 0 0 0 0 0 0
244 109 50 28 13 0 0 0 0 0 0 0 0 0 0 0 0 0 0 0 0 0 0 0 0 0 0 0 0 0 0 0 0 0 0 0 0 7 6 2 0 0 0 0
43 14 0 0 0 0 0 0 0 0 0 0 0 0 0 0 0 0 0 0 0 0 0 0 0 0 0 0 0 0 0 0 0 0 3 8 0 4 37 3 0 0 0 0
0 0 0 0 0 0 0 0 0 0 0 0 0 0 0 0 0 0 0 0 0 0 0 0 0 0 0 0 0 0 0 0 0 0 0 0 0 0 2 0 0 0 0 0
0 0 0 0 0 0 0 0 0 0 0 0 0 0 0 0 0 0 0 0 0 0 0 0 0 0 0 0 0 0 0 0 0 0 2 0 2 20 4 0 0 0 0 0
0 0 0 0 0 0 0 0 0 0 0 0 0 0 0 0 0 0 0 0 0 0 0 0 0 0 0 0 0 0 0 0 0 0 5 23 3 0 0 0 0 0 0 0
CIN
0 0 0 -52 0 0 0 0 -20 -97 -122 -211 0 0 -477 -458 -517 -544 -614 -263 -228 -177 -218 -170 -192 -227 -247 -283 -213 -252 -299 -296 -187 -124 -145 -145 -109 -112 -99 -108 -45 0 0 0
0 0 0 0 0 -67 0 0 0 0 -135 -272 0 0 -373 -455 -552 -515 -439 -462 -409 -214 -308 -192 -190 -273 -272 -323 -360 -322 -276 -174 -142 -161 -168 -129 -111 -169 -135 -133 0 0 0 0
0 0 0 0 0 0 0 -138 -247 -99 -52 -527 -328 -514 0 -9 -425 -376 -309 -478 -385 -160 -519 -189 -243 -214 -242 -228 -249 -242 -140 -156 -189 -211 -164 -148 -208 -215 -225 0 0 0 0 0
0 0 0 0 -19 0 -42 0 -42 -42 0 0 0 0 -351 -377 -327 -343 0 -490 -318 -449 -197 -187 -281 -272 -212 -146 -149 -196 -206 -248 -257 -217 -163 -198 -240 -9 0 0 0 0 0 0
0 0 0 0 -109 0 -47 0 -260 -142 -416 -1 0 -430 -255 -345 -486 -328 -248 -205 -209 -172 -167 -255 -262 -269 -304 -300 -198 -203 -218 -65 0 -234 -224 0 0 0 0 0 0 0 0 0
0 0 0 0 -133 -342 -141 -100 -536 -325 -405 -433 -336 -239 -267 -453 -386 -382 -349 -339 -337 -293 -298 -293 -574 -590 -538 -291 -272 -442 0 -309 -279 0 0 0 0 0 0 0 0 0 0 0
0 0 0 -309 -412 -374 -35 -125 -533 -434 -415 -367 -167 0 -624 -554 -502 -460 -466 -475 -459 -482 -526 -570 -107 -226 0 -402 -152 -125 -162 0 0 0 0 0 0 0 0 0 0 0 0 0
-267 0 -49 -605 -481 -77 -328 -533 -387 -389 -284 -309 -445 -216 -499 -504 -409 -424 -387 -413 -465 -498 -565 -710 -141 0 0 0 -385 0 0 0 0 0 0 0 0 0 0 0 0 0 0 0
-255 -253 -211 -152 -581 -715 -595 -472 -614 -660 -527 -300 -215 -370 -413 -417 -413 -420 -443 -463 -454 -637 -650 -590 -550 -511 -448 -33 0 0 0 0 0 0 0 0 0 0 0 0 0 0 0 0
-282 -286 -223 -487 -610 -676 -576 -510 -534 -374 -467 -208 -51 -294 -332 -342 -346 -449 -472 -550 -594 -638 -514 0 0 0 0 0 0 0 0 0 0 0 0 0 0 0 0 0 0 0 0 0
-243 -274 -294 -443 -486 -477 -525 -538 -436 -324 -196 -205 -225 -265 -294 -321 -362 -481 -521 0 0 0 0 0 0 0 0 0 0 0 0 0 0 0 0 0 0 0 0 0 0 0 0 0
-93 -303 0 -465 -415 -556 -371 -316 -560 -223 -124 -204 -234 -277 -274 -303 -367 -468 -582 -641 0 0 0 0 0 0 0 0 0 0 0 0 0 0 0 0 0 0 0 0 0 0 0 0
-378 -457 -292 0 0 0 -492 -416 -377 -352 -170 -245 -281 -273 -262 -370 -430 -490 -552 0 0 0 0 0 0 0 0 0 0 0 0 0 0 0 0 0 0 0 0 0 0 0 0 0
-416 -431 0 0 0 0 0 -470 -401 -208 -199 -198 -222 -233 -319 -349 -438 -423 -422 0 0 0 0 0 0 0 0 0 0 0 0 0 0 0 0 0 0 0 0 0 0 0 0 0
-414 -296 0 0 -419 -197 -263 -281 -230 -311 -301 -298 -276 -343 -322 -374 -400 -472 0 0 0 0 0 0 0 0 0 0 0 0 0 0 0 0 0 0 0 0 0 0 0 0 0 0
0 -513 -293 -380 0 -341 -329 -328 -389 -342 -312 -348 -264 -230 -379 -339 -358 -52 0 0 0 0 0 0 0 0 0 0 0 0 0 0 0 0 0 0 0 0 0 0 0 0 0 0
-257 -241 -281 -292 0 -209 -397 -359 -575 0 -530 -1 0 -103 -89 -169 -115 0 0 0 0 0 0 0 0 0 0 0 0 0 0 0 0 0 0 0 0 0 0 0 0 0 0 0
-172 -218 0 0 0 0 0 0 0 0 0 -188 -171 -499 -73 -95 -306 0 0 0 0 0 0 0 0 0 0 0 0 0 0 0 0 0 0 0 0 0 0 0 0 0 0 0
-303 -239 -292 -269 0 0 0 0 0 0 0 0 -289 -436 -151 0 0 0 0 0 0 0 0 0 0 0 0 0 0 0 0 0 0 0 0 0 0 0 0 0 0 0 0 0
-185 -241 -527 0 0 0 -356 -407 -626 0 -311 -424 -78 0 0 0 0 0 0 0 0 0 0 0 0 0 0 0 0 0 0 0 0 0 0 0 0 0 0 0 0 0 0 0
-239 -279 -314 -359 -361 -342 -382 -371 -381 -359 0 0 0 0 0 0 0 0 0 0 0 0 0 0 0 0 0 0 0 0 0 0 0 0 0 0 0 -17 0 0 0 0 0 0
-249 -279 -335 -397 -443 -479 -512 -320 0 0 0 0 0 0 0 0 0 0 0 0 0 0 0 0 0 0 0 0 0 0 0 0 0 0 -80 -157 -148 0 0 0 0 0 0 0
-271 -311 -350 -354 -139 0 0 0 0 0 0 0 0 0 0 0 0 0 0 0 0 0 0 0 0 0 0 0 0 0 0 0 0 0 0 0 0 -147 -129 -62 0 0 0 0
-280 -274 0 0 0 0 0 0 0 0 0 0 0 0 0 0 0 0 0 0 0 0 0 0 0 0 0 0 0 0 0 0 0 0 -153 -94 0 -151 -156 -123 0 0 0 0
0 0 0 0 0 0 0 0 0 0 0 0 0 0 0 0 0 0 0 0 0 0 0 0 0 0 0 0 0 0 0 0 0 0 0 0 0 0 -207 0 0 0 0 0
0 0 0 0 0 0 0 0 0 0 0 0 0 0 0 0 0 0 0 0 0 0 0 0 0 0 0 0 0 0 0 0 0 0 -82 0 -98 -156 -146 0 0 0 0 0
0 0 0 0 0 0 0 0 0 0 0 0 0 0 0 0 0 0 0 0 0 0 0 0 0 0 0 0 0 0 0 0 0 0 -130 -134 -99 0 0 0 0 0 0 0
Wind_Speed
7 9 3 5 6 8 6 4 2 6 11 9 10 11 5 13 9 12 6 6 3 5 5 4 10 8 9 11 10 8 7 7 7 7 6 7 5 5 5 6 6 6 7 7
3 5 5 4 10 7 6 2 7 6 6 9 8 6 7 13 13 16 17 16 15 17 13 10 12 12 13 13 10 9 4 6 7 6 7 6 6 6 6 6 6 6 8 10
6 3 3 5 8 6 4 0 8 9 11 6 6 7 10 10 17 23 21 16 17 11 9 12 10 8 6 4 9 9 8 7 8 6 7 7 7 7 6 6 6 7 9 9
5 2 3 9 5 5 7 7 6 7 8 10 11 7 7 6 11 14 16 15 16 10 11 8 10 14 16 12 4 8 9 7 6 7 6 6 7 6 5 4 5 6 9 8
3 4 6 5 3 5 7 6 11 9 7 3 6 8 2 6 5 8 7 7 7 12 10 12 12 13 11 11 10 12 7 6 6 6 7 6 6 4 5 6 5 9 6 7
1 5 9 8 4 6 10 2 17 1 12 9 4 5 4 5 6 9 17 13 12 11 10 14 10 12 13 10 8 8 7 6 5 7 7 6 3 7 6 6 9 7 6 5
3 6 7 2 10 5 6 1 8 2 3 11 9 4 6 10 11 10 14 17 13 12 11 10 13 14 13 8 8 6 8 7 7 7 6 7 6 6 6 7 9 6 6 5
5 3 4 11 12 5 9 2 9 17 17 20 11 7 11 10 9 13 14 14 14 14 11 8 9 11 11 9 6 7 7 7 7 7 5 7 9 6 7 7 7 6 6 5
6 5 9 6 3 5 13 7 9 16 20 21 18 4 9 6 10 10 12 11 11 14 12 6 6 9 12 7 9 8 7 6 5 6 6 7 7 6 6 6 5 4 4 3
4 7 8 4 0 4 6 19 18 21 22 21 11 2 8 5 7 8 10 12 11 14 11 7 5 5 8 8 8 8 8 7 5 6 6 6 5 5 5 5 4 4 4 3
6 7 8 6 7 9 12 8 12 16 23 24 18 11 7 6 7 9 9 9 9 11 8 6 6 6 5 6 7 7 7 6 5 4 5 5 4 4 5 4 6 6 4 4
6 9 6 10 6 5 9 12 12 18 16 16 18 15 11 8 5 8 9 9 9 8 8 5 6 6 6 4 6 7 6 4 5 4 4 4 5 3 7 6 9 8 10 6
7 8 11 14 10 10 9 6 6 7 13 15 14 13 13 9 8 10 10 9 11 9 8 7 5 6 5 5 7 7 6 5 4 5 4 5 4 5 5 3 4 7 9 10
10 6 9 5 8 7 7 19 13 16 16 17 18 15 15 12 12 12 11 11 12 10 8 7 7 5 3 4 6 6 5 7 5 5 5 4 4 4 4 5 5 5 8 10
11 11 10 9 18 15 11 7 11 9 3 5 11 16 14 14 13 13 13 13 13 13 10 9 8 6 5 6 7 6 5 3 4 2 1 2 2 1 3 3 5 4 3 3
9 12 13 14 7 3 13 11 13 11 15 20 14 8 12 14 13 11 12 15 15 10 8 8 7 6 5 6 5 3 3 8 4 4 4 3 2 2 2 3 2 3 4 5
6 8 9 13 6 4 6 11 13 13 15 18 22 16 20 10 7 9 9 10 12 11 8 8 7 4 4 2 4 3 1 2 4 0 2 2 3 3 4 3 4 4 5 6
7 4 7 6 11 5 4 10 13 16 14 17 18 24 17 10 11 10 8 11 10 7 7 7 7 7 7 6 6 4 3 2 4 3 4 5 4 4 5 4 5 5 6 5
1 5 3 5 16 12 7 5 8 8 4 7 13 14 11 6 9 10 11 12 10 10 5 7 13 10 7 9 9 5 5 4 4 5 6 7 5 5 5 5 6 6 6 4
8 11 14 13 10 8 6 9 9 12 5 12 16 15 12 10 11 10 10 10 8 6 7 7 7 6 6 4 6 4 4 4 6 9 6 5 4 5 5 7 6 5 4 5
8 12 15 14 11 9 8 9 10 10 9 12 15 13 11 8 8 10 8 6 1 7 7 8 6 4 2 3 2 2 4 6 7 6 5 1 4 3 5 5 4 4 4 3
9 12 12 13 12 10 8 8 10 10 11 11 10 10 10 7 8 6 2 6 3 8 5 4 4 4 2 4 2 5 6 6 3 4 3 3 1 3 4 4 3 3 4 2
8 13 11 12 11 9 7 7 7 8 9 9 9 8 7 6 5 7 5 3 5 5 4 3 4 6 9 4 4 5 5 4 4 4 4 4 2 0 3 1 2 4 4 2
9 10 11 10 11 12 11 5 6 6 7 7 7 7 9 6 2 1 4 8 7 7 4 4 5 10 13 5 5 4 4 4 4 5 5 5 1 3 3 2 3 2 4 3
11 9 9 11 11 8 9 7 7 6 7 6 6 6 7 3 5 3 2 3 7 6 4 7 11 9 5 5 4 4 5 5 4 4 4 4 2 3 2 4 3 3 3 3
8 6 5 8 9 7 6 6 6 4 5 4 2 3 3 3 3 3 4 5 5 6 5 5 6 6 5 5 6 6 5 5 2 4 4 4 4 3 2 4 3 5 3 2
6 7 5 5 3 5 5 6 6 6 5 5 5 5 5 4 5 5 6 5 5 6 5 5 5 6 6 6 6 6 6 5 5 5 3 3 3 4 5 3 4 5 4 3
Wind_Direction
208 214 242 266 229 265 140 176 123 210 181 205 166 206 174 181 134 122 108 60 312 140 117 195 168 156 148 146 154 155 153 134 136 118 124 101 95 76 63 55 56 51 49 38
206 194 212 269 282 307 287 272 209 203 209 191 145 127 133 166 159 156 173 178 204 200 153 167 165 149 159 161 150 124 143 130 127 112 97 100 87 85 80 73 63 60 55 58
281 288 309 338 234 239 254 55 164 172 211 172 175 119 159 207 199 182 194 184 203 199 162 167 156 137 140 93 114 131 134 117 111 115 108 107 110 99 73 58 71 61 78 70
245 27 216 234 286 175 185 241 241 325 178 174 113 125 148 169 153 201 201 191 194 187 171 141 115 116 118 136 54 66 80 113 134 118 110 106 92 88 91 91 60 66 90 84
161 195 263 282 255 202 106 310 336 198 82 107 127 142 143 114 166 153 146 148 155 162 150 122 133 114 119 108 135 125 173 112 103 98 93 94 95 120 79 66 47 81 96 92
62 222 208 236 297 24 89 288 351 83 146 160 127 101 251 31 76 119 120 125 127 126 115 126 119 123 121 129 131 126 118 138 121 103 104 106 130 66 58 65 87 104 105 95
260 243 286 27 313 284 103 325 310 61 210 176 141 137 143 66 57 86 105 116 115 108 111 112 147 134 124 111 126 144 125 113 105 111 117 99 81 85 89 87 87 86 81 71
335 307 235 358 325 236 138 136 93 60 24 350 330 83 89 88 79 94 97 99 105 111 110 105 102 112 110 126 145 123 124 108 115 116 104 100 97 89 86 89 89 79 76 64
169 228 258 303 214 317 118 192 142 97 39 342 298 41 81 104 94 101 107 103 108 108 105 95 104 133 130 142 131 121 107 117 119 118 109 122 109 102 89 85 91 97 102 113
42 238 251 250 267 327 50 121 114 117 141 199 247 103 99 115 127 125 118 109 109 111 116 108 97 107 123 131 127 122 126 139 133 121 112 118 112 124 120 125 126 137 137 124
251 291 280 240 213 167 190 186 167 170 181 179 168 164 146 171 168 131 123 113 111 111 115 131 126 118 117 131 132 130 129 146 150 137 136 134 131 149 145 179 163 156 178 167
210 224 203 270 268 157 209 200 165 182 185 159 155 154 157 159 140 127 123 127 114 106 113 133 129 124 110 128 126 125 122 136 145 132 129 135 138 119 22 166 182 191 179 175
238 220 198 239 303 265 234 206 196 171 161 160 165 157 157 145 152 138 128 123 123 122 126 124 109 90 86 94 118 130 125 121 126 126 130 145 154 156 164 296 279 237 218 221
223 307 324 239 255 201 225 247 193 176 163 169 159 159 155 140 132 133 135 135 121 124 125 121 111 109 117 115 104 107 114 133 158 159 147 163 176 175 186 185 215 254 239 227
260 243 253 314 306 312 310 182 125 91 43 118 148 143 135 130 133 139 141 137 137 136 138 132 132 155 139 122 127 153 143 134 154 136 291 142 128 48 162 183 228 265 308 258
240 229 247 274 293 107 91 99 92 97 89 53 39 357 137 135 137 135 139 139 134 141 151 140 142 170 151 136 145 151 157 167 160 158 175 166 193 188 196 213 264 252 246 246
178 207 226 257 132 157 120 123 113 113 102 94 78 21 31 29 78 128 141 119 128 143 147 135 151 123 104 173 192 202 236 250 166 151 171 216 173 226 236 237 256 255 248 240
193 185 211 243 152 156 135 115 113 118 122 129 142 131 185 205 172 144 126 114 115 111 135 138 128 105 75 71 72 82 357 56 17 309 248 247 233 219 234 238 250 251 262 275
92 212 122 211 170 137 113 229 122 73 63 138 124 130 141 157 144 126 127 125 134 133 168 116 108 118 118 120 117 141 109 127 250 294 262 244 239 231 238 239 247 249 251 278
62 95 98 96 103 113 125 234 84 100 170 123 116 119 129 145 138 135 132 141 160 156 148 144 113 100 95 84 66 65 93 257 277 270 250 250 204 240 228 245 248 258 290 275
97 96 100 105 105 107 108 92 113 125 119 114 116 127 147 129 134 131 121 135 170 125 114 111 119 137 156 96 82 264 259 267 268 299 332 278 219 212 264 265 293 292 308 307
102 97 97 97 92 78 68 93 107 106 110 112 111 115 117 121 101 83 74 138 149 124 127 130 148 193 232 230 267 233 241 254 298 334 336 319 21 313 305 302 323 296 279 359
116 114 115 113 113 111 92 71 75 100 109 115 123 129 136 138 139 123 119 184 141 157 150 163 193 225 249 257 253 250 263 299 325 323 296 285 297 31 272 78 244 274 298 12
113 111 111 110 109 106 103 92 99 99 100 108 114 125 131 127 93 132 126 162 166 175 188 194 211 230 232 222 237 259 285 303 304 304 304 300 342 280 278 305 298 301 343 38
108 103 101 105 108 112 114 114 100 97 103 108 124 134 132 128 132 203 159 185 197 183 200 223 226 226 201 207 230 255 264 270 291 293 275 287 26 322 341 325 327 22 54 49
104 112 119 124 132 131 133 130 133 142 124 119 115 147 162 184 202 195 200 196 190 185 196 217 215 220 220 227 235 247 255 268 279 262 264 301 260 178 220 246 82 105 115 107
106 109 107 106 118 142 145 145 144 162 163 160 167 197 197 207 218 197 183 182 197 202 208 214 216 223 222 229 233 240 245 252 251 238 191 173 204 244 233 224 135 134 148 139